Location: Austin
(30.3000°N, 97.7500°W)
Time: 03:20:59
(UTC-05:00)

Cosmos 2360 Rocket - Pass Details

Date: 18 March 2023
Orbit: 832 x 846 km, 71.0° (Epoch: 01 April)

Event Time Altitude Azimuth Distance (km) Brightness Sun altitude
Rises 20:52:16 0° 346° (NNW) 3,403 5.7 -16.1°
Reaches altitude 10° 20:54:47 10° 350° (N) 2,464 4.9 -16.7°
Maximum altitude 21:00:19 54° 68° (ENE) 1,009 2.3 -17.8°
Enters shadow 21:03:25 26° 135° (SE) 1,611 3.2 -18.5°
